Station WASD2 - 8594900 - Washington, DC Image indicating link to RSS feed of recent meteorological observations for station WASD2


Conditions at WASD2 as of
(3:30 pm EDT)
1930 GMT on 05/22/2024:
     

Click on the graph icon in the table below to see a time series plot of the last five days of that observation.

5-day plot - Wind Direction Wind Direction (WDIR): S ( 170 deg true )
5-day plot - Wind Speed Wind Speed (WSPD): 8.9 kts
5-day plot - Wind Gust Wind Gust (GST): 11.1 kts
5-day plot - Atmospheric Pressure Atmospheric Pressure (PRES):29.90 in
5-day plot - Air Temperature Air Temperature (ATMP): 82.2 °F
5-day plot - Water Temperature Water Temperature (WTMP): 71.6 °F
5-day plot - Wind Speed at 10 Meters Wind Speed at 10 meters (WSPD10M): 9.7 kts
5-day plot - Wind Speed at 20 Meters Wind Speed at 20 meters (WSPD20M): 9.7 kts
5-day plot -  Wind Speed, Wind Gust and Atmospheric Pressure Combined plot of Wind Speed, Gust, and Air Pressure
NOS Water Level Observation Network Water Level
Previous observations
TIME
(EDT)
5-day plot - Wind Direction
WDIR
 
5-day plot - Wind Speed
WSPD
kts
5-day plot - Wind Gust
GST
kts
5-day plot - Wave Height
WVHT
ft
5-day plot - Dominant Wave Period
DPD
sec
5-day plot - Average Wave Period
APD
sec
5-day plot - Mean Wave Direction
MWD
 
5-day plot - Atmospheric Pressure
PRES
in
5-day plot - Pressure Tendency
PTDY
in
5-day plot - Air Temperature
ATMP
°F
5-day plot - Water Temperature
WTMP
°F
5-day plot - Dew Point
DEWP
°F
5-day plot - Salinity
SAL
psu
5-day plot - Visibility
VIS
nmi
5-day plot - Tide (above MLLW)
TIDE
ft
2024-05-22 03:24 pm S 8.9 13.0----29.91- 82.6 71.4----
2024-05-22 03:18 pm S 9.9 12.0----29.91- 83.1 71.2----
2024-05-22 03:12 pmSSE 8.9 9.9----29.91- 82.8 71.2----
2024-05-22 03:06 pm S 8.9 12.0----29.91- 82.2 71.2----
2024-05-22 03:00 pm S 8.0 11.1----29.91-0.05 82.0 71.1----
2024-05-22 02:54 pm S 7.0 9.9----29.91- 81.5 71.1----
2024-05-22 02:48 pm S 8.0 8.9----29.92- 80.6 71.1----
2024-05-22 02:42 pm S 8.0 11.1----29.92- 81.9 71.1----
2024-05-22 02:36 pm S 8.0 12.0----29.92- 82.2 71.1----
2024-05-22 02:30 pm S 8.9 9.9----29.92- 80.4 70.9----
2024-05-22 02:24 pm S 8.9 11.1----29.92- 81.7 70.9----
2024-05-22 02:18 pm S 8.9 11.1------- 70.9----
2024-05-22 02:12 pm S 8.9 9.9------- 70.9----
2024-05-22 02:06 pm S 8.0 8.9------- 70.7----
2024-05-22 02:00 pm S 7.0 11.1------- 70.7----
2024-05-22 01:54 pm S 8.9 9.9------- 70.9----
2024-05-22 01:48 pm S 8.0 8.9------- 70.9----
2024-05-22 01:42 pm S 7.0 8.9------- 70.9----
2024-05-22 01:36 pm S 7.0 8.9------- 70.9----
2024-05-22 01:30 pm S 8.0 8.9----29.94-------
2024-05-22 01:24 pm S 6.0 8.9----29.94-------
2024-05-22 01:18 pm S 8.0 9.9------- 70.9----
2024-05-22 01:12 pm S 8.0 8.9------- 70.9----
2024-05-22 01:06 pm S 7.0 8.0------- 70.7----
2024-05-22 01:00 pm S 6.0 8.9----29.95-0.04- 70.9----
2024-05-22 12:54 pm S 7.0 8.9----29.95-- 70.7----
2024-05-22 12:48 pm S 6.0 8.0------- 70.7----
2024-05-22 12:42 pm S 7.0 8.0------- 70.7----
2024-05-22 12:36 pm S 8.0 9.9------- 70.7----
2024-05-22 12:30 pmSSW 6.0 8.0------------
2024-05-22 12:24 pm S 7.0 8.9------------
2024-05-22 12:18 pm S 7.0 8.9------ 78.4 70.7----
2024-05-22 12:12 pm S 5.1 8.0------ 78.3 70.7----
2024-05-22 12:06 pm S 6.0 8.9------ 78.3 70.7----
2024-05-22 12:00 pm S 5.1 7.0----29.96-0.03 77.7 70.7----
2024-05-22 11:54 am S 7.0 8.9----29.96- 77.2 70.9----
2024-05-22 11:48 am S 6.0 8.0----29.97- 77.2 70.9----
2024-05-22 11:42 am S 6.0 8.0----29.97- 77.0 70.9----
2024-05-22 11:36 am S 7.0 8.0----29.97- 77.0 70.9----
2024-05-22 11:30 am S 5.1 6.0----29.97- 76.8 70.7----
2024-05-22 11:24 am S 5.1 6.0----29.97- 76.5 70.7----
2024-05-22 11:18 amSSW 4.1 6.0----29.97- 76.8 70.7----
2024-05-22 11:12 amSSE 4.1 6.0----29.97- 76.3 70.7----
2024-05-22 11:06 am S 5.1 6.0----29.97- 75.7 70.7----
2024-05-22 11:00 amSSE 4.1 5.1----29.98-0.02 75.4 70.7----
2024-05-22 10:54 am S 4.1 5.1----29.98- 75.0 70.7----
2024-05-22 10:48 am S 4.1 5.1----29.98-- 70.7----
2024-05-22 10:42 am S 4.1 6.0----29.98-- 70.7----
2024-05-22 10:36 am S 2.9 6.0----29.98-- 70.7----
2024-05-22 10:30 am S 5.1 5.1------------
2024-05-22 10:24 am S 5.1 6.0------------
2024-05-22 10:18 amSSE 4.1 5.1------------
2024-05-22 10:12 am S 5.1 7.0------------
2024-05-22 10:06 am S 5.1 6.0------------
2024-05-22 10:00 am S 5.1 6.0----29.98+0.00 72.9 70.7----
2024-05-22 09:54 am S 4.1 5.1----29.98- 72.9 70.7----
2024-05-22 09:48 am S 5.1 6.0----29.98-- 70.7----
2024-05-22 09:42 am S 5.1 6.0----29.98-- 70.7----
2024-05-22 09:36 amSSE 5.1 6.0----29.98-- 70.7----
2024-05-22 09:30 am S 5.1 6.0------------
2024-05-22 09:24 am S 6.0 7.0------------
2024-05-22 09:18 am S 5.1 6.0----29.99-- 70.7----
2024-05-22 09:12 am S 6.0 7.0----29.99-- 70.7----
2024-05-22 09:06 amSSE 7.0 7.0----29.99-- 70.7----
2024-05-22 09:00 am S 6.0 7.0----29.99+0.02 70.7 70.7----
2024-05-22 08:54 am S 7.0 8.0----29.99- 70.3 70.7----
2024-05-22 08:48 am S 7.0 8.0----30.00- 70.3 70.7----
2024-05-22 08:42 am S 6.0 7.0----30.00- 70.3 70.7----
2024-05-22 08:36 am S 5.1 7.0----29.99- 70.2 70.7----
2024-05-22 08:30 am S 5.1 7.0----30.00- 69.6 70.7----
2024-05-22 08:24 am S 6.0 7.0----29.99- 69.3 70.7----
2024-05-22 08:18 am S 6.0 7.0----29.99- 69.3 70.7----
2024-05-22 08:12 am S 5.1 7.0----30.00- 68.7 70.7----
2024-05-22 08:06 am S 6.0 7.0----30.00- 68.7 70.7----
2024-05-22 08:00 am S 6.0 7.0----30.00+0.02 68.4 70.7----
2024-05-22 07:54 am S 6.0 8.0----30.00- 68.2 70.7----
2024-05-22 07:48 am S 6.0 8.0----30.00- 68.2 70.7----
2024-05-22 07:42 am S 5.1 7.0----30.00- 68.0 70.7----
2024-05-22 07:36 am S 5.1 6.0----29.99- 67.8 70.7----
2024-05-22 07:30 am S 5.1 7.0----29.99- 67.6 70.7----
2024-05-22 07:24 am S 4.1 6.0----29.99- 67.5 70.7----
2024-05-22 07:18 am S 4.1 6.0----30.00- 67.5 70.7----
2024-05-22 07:12 amSSW 4.1 6.0----29.99- 67.3 70.7----
2024-05-22 07:06 am S 4.1 6.0----29.99- 66.9 70.7----
2024-05-22 07:00 amSSW 5.1 6.0----29.98+0.00 66.6 70.7----
2024-05-22 06:54 am S 5.1 7.0----29.98- 66.7 70.9----
2024-05-22 06:48 am S 6.0 7.0----29.98- 66.6 70.9----
2024-05-22 06:42 am S 6.0 7.0----29.97- 66.6 70.9----
2024-05-22 06:36 am S 5.1 6.0----29.98- 66.4 70.9----
2024-05-22 06:30 am S 5.1 7.0----29.97- 66.4 70.9----
2024-05-22 06:24 am S 5.1 6.0----29.97- 66.2 70.9----
2024-05-22 06:18 am S 6.0 7.0----29.98- 66.4 70.9----
2024-05-22 06:12 am S 4.1 6.0----29.98- 66.0 70.9----
2024-05-22 06:06 amSSE 5.1 7.0----29.97- 66.0 70.9----
2024-05-22 06:00 am S 2.9 5.1----29.98+0.00 66.0 70.9----
2024-05-22 05:54 am SE 4.1 6.0----29.98- 66.0 71.1----
2024-05-22 05:48 amSSE 2.9 6.0----29.98- 66.2 71.1----
2024-05-22 05:42 amSSE 4.1 5.1----29.98- 66.2 71.1----
2024-05-22 05:36 am S 4.1 6.0----29.98- 66.4 71.1----
2024-05-22 05:30 amSSE 4.1 5.1----29.98- 66.4 71.1----
2024-05-22 05:24 amSSE 4.1 6.0----29.97- 66.4 71.1----
2024-05-22 05:18 am S 4.1 6.0----29.97- 66.6 71.1----
2024-05-22 05:12 amSSE 4.1 6.0----29.97- 66.4 71.1----
2024-05-22 05:06 amSSE 4.1 6.0----29.97- 66.4 71.1----
2024-05-22 05:00 am S 5.1 7.0----29.98-0.01 66.7 71.1----
2024-05-22 04:54 am S 5.1 6.0----29.98- 66.7 71.1----
2024-05-22 04:48 am S 5.1 6.0----29.98- 66.7 71.1----
2024-05-22 04:42 amSSE 2.9 5.1----29.98- 66.4 71.1----
2024-05-22 04:36 amSSE 2.9 5.1----29.98- 66.6 71.1----
2024-05-22 04:30 am S 2.9 4.1----29.98- 66.7 71.1----
2024-05-22 04:24 amSSW 4.1 5.1----29.98- 66.7 71.1----
2024-05-22 04:18 amSSW 2.9 6.0----29.98- 66.7 71.1----
2024-05-22 04:12 am S 5.1 7.0----29.98- 66.9 71.1----
2024-05-22 04:06 am S 4.1 5.1----29.98- 67.1 71.1----
2024-05-22 04:00 am S 4.1 5.1----29.98+0.00 66.9 71.1----
2024-05-22 03:54 am S 4.1 6.0----29.98- 67.3 71.1----
2024-05-22 03:48 am S 5.1 7.0----29.98- 67.1 71.1----
2024-05-22 03:42 am S 5.1 7.0----29.98- 67.1 71.1----
2024-05-22 03:36 am S 5.1 7.0----29.98- 67.3 71.1----
2024-05-22 03:30 am S 5.1 8.0----29.98- 67.3 71.1----
2024-05-22 03:24 am S 6.0 7.0----29.97- 67.1 71.1----
2024-05-22 03:18 amSSE 6.0 7.0----29.97- 67.1 71.1----
2024-05-22 03:12 am S 5.1 6.0----29.97- 67.5 71.1----
2024-05-22 03:06 amSSE 5.1 5.1----29.97- 67.3 71.1----
2024-05-22 03:00 amSSE 4.1 6.0----29.98+0.00 67.3 71.1----
2024-05-22 02:54 amSSE 4.1 6.0----29.98- 67.3 71.1----
2024-05-22 02:48 amSSE 4.1 5.1----29.98- 67.5 71.1----
2024-05-22 02:42 amSSE 4.1 6.0----29.98- 67.5 71.1----
2024-05-22 02:36 amSSE 5.1 6.0----29.98- 67.5 71.1----
2024-05-22 02:30 am S 5.1 6.0----29.98- 68.0 71.1----
2024-05-22 02:24 am S 7.0 8.9----29.98- 68.2 71.1----
2024-05-22 02:18 am S 6.0 9.9----29.98- 68.2 71.1----
2024-05-22 02:12 am S 6.0 11.1----29.98- 68.4 71.1----
2024-05-22 02:06 am S 7.0 9.9----29.98- 68.5 71.1----
2024-05-22 02:00 am S 6.0 8.9----29.99+0.00 68.5 71.1----
2024-05-22 01:54 am S 6.0 9.9----29.99- 68.7 71.1----
2024-05-22 01:48 amSSW 7.0 8.9----29.98- 68.5 71.1----
2024-05-22 01:42 am S 8.0 9.9----29.98- 68.9 71.1----
2024-05-22 01:36 am S 6.0 8.9----29.99- 68.9 71.1----
2024-05-22 01:30 amSSW 2.9 5.1----29.99- 68.7 71.1----
2024-05-22 01:24 am S 5.1 6.0----29.98- 68.9 71.1----
2024-05-22 01:18 am S 5.1 5.1----29.98- 68.7 71.1----
2024-05-22 01:12 am S 4.1 5.1----29.98- 68.7 71.1----
2024-05-22 01:06 am S 4.1 5.1----29.98- 68.7 71.1----
2024-05-22 01:00 amSSE 4.1 5.1----29.98+0.00 68.7 71.1----
2024-05-22 12:54 amSSE 2.9 4.1----29.98- 68.9 71.1----
2024-05-22 12:48 amSSE 4.1 5.1----29.97- 68.9 71.1----
2024-05-22 12:42 amSSE 4.1 5.1----29.97- 69.1 71.1----
2024-05-22 12:36 am SE 4.1 5.1----29.97- 69.3 71.1----
2024-05-22 12:30 am SE 4.1 5.1----29.97- 69.3 71.1----
2024-05-22 12:24 am SE 2.9 4.1----29.98- 69.4 71.1----
2024-05-22 12:18 am SE 1.9 2.9----29.98- 69.4 71.1----
2024-05-22 12:12 amESE 1.9 4.1----29.97- 69.4 71.1----
2024-05-22 12:06 amSSE 2.9 5.1----29.98- 69.8 71.1----
2024-05-22 12:00 amSSE 4.1 5.1----29.97+0.01 69.8 71.1----
2024-05-21 11:54 pmSSE 4.1 5.1----29.98- 70.0 71.1----
2024-05-21 11:48 pmSSE 4.1 6.0----29.98- 70.0 71.1----
2024-05-21 11:42 pmSSE 4.1 6.0----29.98- 70.2 71.1----
2024-05-21 11:36 pmSSE 4.1 6.0----29.98- 70.3 71.1----
2024-05-21 11:30 pmSSE 4.1 5.1----29.97- 70.5 71.1----
2024-05-21 11:24 pm S 1.9 4.1----29.97- 70.7 71.1----
2024-05-21 11:18 pmSSE 1.9 4.1----29.98- 70.7 71.1----
2024-05-21 11:12 pmSSE 1.9 5.1----29.98- 70.9 70.9----
2024-05-21 11:06 pmSSE 2.9 5.1----29.98- 71.1 71.1----
2024-05-21 11:00 pmSSE 4.1 6.0----29.98+0.04 71.2 71.1----
2024-05-21 10:54 pm S 5.1 6.0----29.98- 71.4 71.1----
2024-05-21 10:48 pm S 2.9 5.1----29.98- 71.4 71.2----
2024-05-21 10:42 pm S 1.9 4.1----29.99- 71.8 71.2----
2024-05-21 10:36 pmSSE 1.9 4.1----29.98- 72.0 71.2----
2024-05-21 10:30 pmSSE 2.9 4.1----29.98- 72.0 71.2----
2024-05-21 10:24 pm S 2.9 4.1----29.98- 72.3 71.2----
2024-05-21 10:18 pmSSE 2.9 4.1----29.99- 72.3 71.2----
2024-05-21 10:12 pm S 2.9 6.0----29.98- 72.5 71.2----
2024-05-21 10:06 pm S 5.1 6.0----29.98- 72.7 71.1----
2024-05-21 10:00 pm S 5.1 7.0----29.98+0.03 72.7 71.1----
2024-05-21 09:54 pm S 7.0 8.0----29.98- 73.2 71.1----
2024-05-21 09:48 pm S 5.1 7.0----29.98- 73.0 71.1----
2024-05-21 09:42 pm S 5.1 6.0----29.98- 73.2 70.9----
2024-05-21 09:36 pm S 4.1 5.1----29.98- 73.2 70.9----
2024-05-21 09:30 pm S 4.1 5.1----29.97- 73.2 70.9----
2024-05-21 09:24 pmSSW 2.9 5.1----29.97- 73.6 70.9----
2024-05-21 09:18 pmSSE 4.1 6.0----29.97- 73.8 70.9----
2024-05-21 09:12 pmSSE 4.1 6.0----29.97- 73.9 70.9----
2024-05-21 09:06 pm S 5.1 8.0----29.96- 74.5 70.9----
2024-05-21 09:00 pm S 6.0 8.9----29.96+0.00 74.7 70.9----
2024-05-21 08:54 pmSSE 5.1 8.0----29.96- 74.8 70.9----
2024-05-21 08:48 pmSSE 6.0 8.0----29.96- 75.2 70.9----
2024-05-21 08:42 pmSSE 7.0 8.9----29.96- 75.4 70.9----
2024-05-21 08:36 pmSSE 6.0 9.9----29.96- 75.7 70.9----
2024-05-21 08:30 pmSSE 6.0 11.1----29.96- 76.1 71.1----
2024-05-21 08:24 pmSSE 7.0 9.9----29.95- 76.5 71.1----
2024-05-21 08:18 pm SE 7.0 9.9----29.95- 77.0 71.1----
2024-05-21 08:12 pmSSE 6.0 9.9----29.95- 77.2 71.1----
2024-05-21 08:06 pmSSE 8.0 12.0----29.95- 77.9 71.1----
2024-05-21 08:00 pmSSE 8.0 11.1----29.95+0.00 78.3 71.1----
2024-05-21 07:54 pm S 8.0 9.9----29.95- 77.5 71.1----
2024-05-21 07:48 pm S 7.0 9.9----29.95- 78.4 71.1----
2024-05-21 07:42 pm S 5.1 8.0----29.95- 77.0 71.2----
2024-05-21 07:36 pm S 6.0 8.0----29.95- 78.3 71.2----
2024-05-21 07:30 pm S 6.0 7.0----29.95- 79.0 71.2----
2024-05-21 07:24 pm S 5.1 7.0----29.95- 79.3 71.2----
2024-05-21 07:00 pm S 8.0 8.9----29.96+0.00 79.2 71.4----
2024-05-21 06:54 pm S 7.0 8.0----29.96- 79.0 71.6----
2024-05-21 06:48 pm S 7.0 9.9----29.96- 79.2 71.6----
2024-05-21 06:42 pm S 7.0 8.0----29.96- 79.0 71.6----
2024-05-21 06:36 pmSSE 6.0 8.9----29.96- 79.9 71.6----
2024-05-21 06:30 pm S 8.9 9.9----29.96- 79.5 71.6----
2024-05-21 06:24 pm S 8.9 11.1----29.96- 79.2 71.6----
2024-05-21 06:18 pm S 7.0 8.9----29.96- 79.5 71.6----
2024-05-21 06:12 pm S 5.1 8.0----29.96- 80.2 71.8----
2024-05-21 06:06 pm S 6.0 8.9----29.96- 80.6 71.8----
2024-05-21 06:00 pm S 7.0 8.0----29.96-0.01 79.3 72.0----
2024-05-21 05:54 pm S 7.0 8.9----29.96- 79.2 72.1----
2024-05-21 05:48 pm S 8.0 8.9----29.96- 79.9 72.3----
2024-05-21 05:42 pm S 8.0 9.9----29.96- 79.2 72.3----
2024-05-21 05:36 pmSSE 7.0 8.9----29.96- 79.9 72.3----
2024-05-21 05:30 pm S 8.0 11.1----29.96-- 72.3----
2024-05-21 05:24 pm S 7.0 9.9----29.96-- 72.3----
2024-05-21 05:18 pm S 7.0 8.0----29.96-- 72.5----
2024-05-21 05:12 pm S 7.0 8.9----29.96-- 72.5----
2024-05-21 05:06 pm S 7.0 8.9----29.96-- 72.5----
2024-05-21 05:00 pm S 7.0 9.9----29.95-0.03 79.7 72.5----
2024-05-21 04:54 pm S 7.0 8.0----29.95- 79.0 72.5----
2024-05-21 04:48 pm S 6.0 8.9----29.95-- 72.5----
2024-05-21 04:42 pm S 6.0 8.0----29.95-- 72.5----
2024-05-21 04:36 pm S 5.1 8.0----29.95-- 72.5----
2024-05-21 04:30 pm S 8.0 8.9----29.95-------
2024-05-21 04:24 pm S 7.0 8.9----29.95-------
2024-05-21 04:18 pm S 7.0 8.9----29.96-- 72.5----
2024-05-21 04:12 pm S 7.0 8.9----29.96-- 72.5----
2024-05-21 04:06 pm S 8.0 9.9----29.96-- 72.3----
2024-05-21 04:00 pm S 8.0 11.1----29.96-0.04 80.6 72.3----
2024-05-21 03:54 pm S 8.0 9.9----29.96- 80.4 72.0----